date,time,SUV Intensity [MED/Hr],UV Index,Daily total [MED],Since Last [MED]
21/02/2022,00:04:56,0.000,0.0,0.0,0.0
21/02/2022,00:05:55,0.001,0.0,0.0,0.0
21/02/2022,00:06:55,0.000,0.0,0.0,0.0
21/02/2022,00:07:55,-0.000,0.0,0.0,0.0
21/02/2022,00:08:55,-0.001,0.0,0.0,0.0
21/02/2022,00:09:55,-0.001,0.0,0.0,0.0
21/02/2022,00:10:55,0.001,0.0,0.0,0.0
21/02/2022,00:11:55,0.000,0.0,0.0,0.0
21/02/2022,00:12:55,-0.001,0.0,0.0,0.0
21/02/2022,00:14:03,0.000,0.0,0.0,0.0
21/02/2022,00:14:55,0.000,0.0,0.0,0.0
21/02/2022,00:15:55,0.000,0.0,0.0,0.0
21/02/2022,00:17:03,-0.001,0.0,0.0,0.0
21/02/2022,00:17:55,0.000,0.0,0.0,0.0
21/02/2022,00:18:55,0.000,0.0,0.0,0.0
21/02/2022,00:19:55,0.000,0.0,0.0,0.0
21/02/2022,00:20:55,0.000,0.0,0.0,0.0
21/02/2022,00:21:55,-0.001,0.0,0.0,0.0
21/02/2022,00:22:55,0.000,0.0,0.0,0.0
21/02/2022,00:23:55,-0.000,0.0,0.0,0.0
21/02/2022,00:25:04,0.000,0.0,0.0,0.0
21/02/2022,00:25:54,0.000,0.0,0.0,0.0
21/02/2022,00:26:56,0.000,0.0,0.0,0.0
21/02/2022,00:28:05,0.000,0.0,0.0,0.0
21/02/2022,00:28:55,0.000,0.0,0.0,0.0
21/02/2022,00:29:55,-0.000,0.0,0.0,0.0
21/02/2022,00:30:55,0.000,0.0,0.0,0.0
21/02/2022,00:31:56,-0.000,0.0,0.0,0.0
21/02/2022,00:32:55,-0.000,0.0,0.0,0.0
21/02/2022,00:33:55,0.001,0.0,0.0,0.0
21/02/2022,00:34:56,0.000,0.0,0.0,0.0
21/02/2022,00:35:55,0.000,0.0,0.0,0.0
21/02/2022,00:36:55,-0.001,0.0,0.0,0.0
21/02/2022,00:37:55,0.001,0.0,0.0,0.0
21/02/2022,00:38:55,0.000,0.0,0.0,0.0
21/02/2022,00:39:55,0.001,0.0,0.0,0.0
21/02/2022,00:40:55,0.000,0.0,0.0,0.0
21/02/2022,00:41:55,-0.000,0.0,0.0,0.0
21/02/2022,00:42:55,-0.000,0.0,0.0,0.0
21/02/2022,00:43:55,0.000,0.0,0.0,0.0
21/02/2022,00:44:55,0.000,0.0,0.0,0.0
21/02/2022,00:46:03,0.000,0.0,0.0,0.0
21/02/2022,00:46:55,0.000,0.0,0.0,0.0
21/02/2022,00:47:55,0.000,0.0,0.0,0.0
21/02/2022,00:48:55,-0.001,0.0,0.0,0.0
21/02/2022,00:49:56,0.000,0.0,0.0,0.0
21/02/2022,00:50:55,-0.001,0.0,0.0,0.0
21/02/2022,00:51:55,0.000,0.0,0.0,0.0
21/02/2022,00:52:56,0.001,0.0,0.0,0.0
21/02/2022,00:53:55,0.000,0.0,0.0,0.0
21/02/2022,00:54:55,0.001,0.0,0.0,0.0
21/02/2022,00:55:55,0.000,0.0,0.0,0.0
21/02/2022,00:57:03,0.000,0.0,0.0,0.0
21/02/2022,00:57:55,0.001,0.0,0.0,0.0
21/02/2022,00:58:55,0.000,0.0,0.0,0.0
21/02/2022,00:59:55,0.001,0.0,0.0,0.0
21/02/2022,01:00:56,-0.001,0.0,0.0,0.0
21/02/2022,01:01:58,-0.000,0.0,0.0,0.0
21/02/2022,01:02:55,0.000,0.0,0.0,0.0
21/02/2022,01:03:55,0.000,0.0,0.0,0.0
21/02/2022,01:04:55,0.000,0.0,0.0,0.0
21/02/2022,01:05:55,0.000,0.0,0.0,0.0
21/02/2022,01:06:55,0.000,0.0,0.0,0.0
21/02/2022,01:08:03,-0.000,0.0,0.0,0.0
21/02/2022,01:08:55,0.000,0.0,0.0,0.0
21/02/2022,01:09:55,0.000,0.0,0.0,0.0
21/02/2022,01:10:55,-0.001,0.0,0.0,0.0
21/02/2022,01:11:55,0.000,0.0,0.0,0.0
21/02/2022,01:12:55,0.001,0.0,0.0,0.0
21/02/2022,01:13:55,0.001,0.0,0.0,0.0
21/02/2022,01:14:56,0.000,0.0,0.0,0.0
21/02/2022,01:15:56,0.000,0.0,0.0,0.0
21/02/2022,01:16:55,-0.000,0.0,0.0,0.0
21/02/2022,01:17:55,0.000,0.0,0.0,0.0
21/02/2022,01:18:55,-0.001,0.0,0.0,0.0
21/02/2022,01:19:57,0.000,0.0,0.0,0.0
21/02/2022,01:20:56,0.000,0.0,0.0,0.0
21/02/2022,01:21:55,0.000,0.0,0.0,0.0
21/02/2022,01:22:55,0.000,0.0,0.0,0.0
21/02/2022,01:23:55,0.000,0.0,0.0,0.0
21/02/2022,01:24:56,-0.001,0.0,0.0,0.0
21/02/2022,01:26:04,0.001,0.0,0.0,0.0
21/02/2022,01:26:55,0.000,0.0,0.0,0.0
21/02/2022,01:27:57,0.000,0.0,0.0,0.0
21/02/2022,01:28:55,0.000,0.0,0.0,0.0
21/02/2022,01:29:55,0.000,0.0,0.0,0.0
21/02/2022,01:30:55,0.001,0.0,0.0,0.0
21/02/2022,01:31:55,0.000,0.0,0.0,0.0
21/02/2022,01:32:55,0.001,0.0,0.0,0.0
21/02/2022,01:33:56,0.001,0.0,0.0,0.0
21/02/2022,01:34:55,0.000,0.0,0.0,0.0
21/02/2022,01:35:55,0.000,0.0,0.0,0.0
21/02/2022,01:36:55,0.000,0.0,0.0,0.0
21/02/2022,01:37:55,0.000,0.0,0.0,0.0
21/02/2022,01:38:55,0.000,0.0,0.0,0.0
21/02/2022,01:39:55,0.000,0.0,0.0,0.0
21/02/2022,01:40:55,-0.000,0.0,0.0,0.0
21/02/2022,01:41:55,0.001,0.0,0.0,0.0
21/02/2022,01:42:55,0.000,0.0,0.0,0.0
21/02/2022,01:43:56,-0.001,0.0,0.0,0.0
21/02/2022,01:44:55,0.001,0.0,0.0,0.0
21/02/2022,01:45:55,0.000,0.0,0.0,0.0
21/02/2022,01:46:55,0.000,0.0,0.0,0.0
21/02/2022,01:47:55,0.000,0.0,0.0,0.0
21/02/2022,01:48:55,-0.001,0.0,0.0,0.0
21/02/2022,01:49:55,0.000,0.0,0.0,0.0
21/02/2022,01:50:55,0.000,0.0,0.0,0.0
21/02/2022,01:51:56,0.000,0.0,0.0,0.0
21/02/2022,01:52:55,0.000,0.0,0.0,0.0
21/02/2022,01:53:55,0.000,0.0,0.0,0.0
21/02/2022,01:55:03,0.000,0.0,0.0,0.0
21/02/2022,01:55:55,0.000,0.0,0.0,0.0
21/02/2022,01:56:56,0.001,0.0,0.0,0.0
21/02/2022,01:58:04,0.000,0.0,0.0,0.0
21/02/2022,01:59:02,0.000,0.0,0.0,0.0
21/02/2022,01:59:55,-0.000,0.0,0.0,0.0
21/02/2022,02:00:55,0.000,0.0,0.0,0.0
21/02/2022,02:01:56,0.000,0.0,0.0,0.0
21/02/2022,02:02:55,-0.001,0.0,0.0,0.0
21/02/2022,02:03:55,0.000,0.0,0.0,0.0
21/02/2022,02:04:55,0.000,0.0,0.0,0.0
21/02/2022,02:06:03,0.001,0.0,0.0,0.0
21/02/2022,02:06:56,0.000,0.0,0.0,0.0
21/02/2022,02:07:55,0.000,0.0,0.0,0.0
21/02/2022,02:08:56,0.000,0.0,0.0,0.0
21/02/2022,02:09:56,0.000,0.0,0.0,0.0
21/02/2022,02:10:56,0.001,0.0,0.0,0.0
21/02/2022,02:11:55,0.000,0.0,0.0,0.0
21/02/2022,02:12:55,-0.001,0.0,0.0,0.0
21/02/2022,02:13:55,0.000,0.0,0.0,0.0
21/02/2022,02:14:55,0.000,0.0,0.0,0.0
21/02/2022,02:15:56,0.000,0.0,0.0,0.0
21/02/2022,02:17:03,-0.000,0.0,0.0,0.0
21/02/2022,02:17:54,0.000,0.0,0.0,0.0
21/02/2022,02:18:55,0.000,0.0,0.0,0.0
21/02/2022,02:19:55,0.000,0.0,0.0,0.0
21/02/2022,02:20:55,0.001,0.0,0.0,0.0
21/02/2022,02:21:56,0.002,0.0,0.0,0.0
21/02/2022,02:23:56,0.000,0.0,0.0,0.0
21/02/2022,02:24:56,0.000,0.0,0.0,0.0
21/02/2022,02:25:56,0.001,0.0,0.0,0.0
21/02/2022,02:26:56,0.000,0.0,0.0,0.0
21/02/2022,02:27:56,-0.000,0.0,0.0,0.0
21/02/2022,02:28:55,0.000,0.0,0.0,0.0
21/02/2022,02:29:55,0.001,0.0,0.0,0.0
21/02/2022,02:30:55,0.000,0.0,0.0,0.0
21/02/2022,02:31:56,0.000,0.0,0.0,0.0
21/02/2022,02:32:55,0.000,0.0,0.0,0.0
21/02/2022,02:33:55,0.000,0.0,0.0,0.0
21/02/2022,02:34:55,0.000,0.0,0.0,0.0
21/02/2022,02:35:55,0.000,0.0,0.0,0.0
21/02/2022,02:36:55,0.000,0.0,0.0,0.0
21/02/2022,02:38:03,0.000,0.0,0.0,0.0
21/02/2022,02:39:03,0.000,0.0,0.0,0.0
21/02/2022,02:39:55,0.001,0.0,0.0,0.0
21/02/2022,02:40:56,0.000,0.0,0.0,0.0
21/02/2022,02:41:55,0.000,0.0,0.0,0.0
21/02/2022,02:42:55,0.001,0.0,0.0,0.0
21/02/2022,02:43:56,0.001,0.0,0.0,0.0
21/02/2022,02:44:55,0.000,0.0,0.0,0.0
21/02/2022,02:46:04,0.000,0.0,0.0,0.0
21/02/2022,02:46:55,0.000,0.0,0.0,0.0
21/02/2022,02:47:55,0.000,0.0,0.0,0.0
21/02/2022,02:48:55,0.000,0.0,0.0,0.0
21/02/2022,02:49:55,0.000,0.0,0.0,0.0
21/02/2022,02:50:55,0.000,0.0,0.0,0.0
21/02/2022,02:51:55,0.000,0.0,0.0,0.0
21/02/2022,02:52:56,-0.001,0.0,0.0,0.0
21/02/2022,02:53:56,-0.000,0.0,0.0,0.0
21/02/2022,02:54:56,0.000,0.0,0.0,0.0
21/02/2022,02:55:55,0.000,0.0,0.0,0.0
21/02/2022,02:56:55,0.001,0.0,0.0,0.0
21/02/2022,02:57:55,0.000,0.0,0.0,0.0
21/02/2022,02:58:55,0.000,0.0,0.0,0.0
21/02/2022,03:00:03,0.000,0.0,0.0,0.0
21/02/2022,03:00:55,-0.001,0.0,0.0,0.0
21/02/2022,03:01:56,0.000,0.0,0.0,0.0
21/02/2022,03:02:55,0.000,0.0,0.0,0.0
21/02/2022,03:03:55,0.000,0.0,0.0,0.0
21/02/2022,03:04:56,0.000,0.0,0.0,0.0
21/02/2022,03:05:56,0.000,0.0,0.0,0.0
21/02/2022,03:06:56,0.000,0.0,0.0,0.0
21/02/2022,03:08:04,0.000,0.0,0.0,0.0
21/02/2022,03:08:56,-0.001,0.0,0.0,0.0
21/02/2022,03:09:55,0.000,0.0,0.0,0.0
21/02/2022,03:10:55,0.000,0.0,0.0,0.0
21/02/2022,03:11:55,-0.000,0.0,0.0,0.0
21/02/2022,03:12:55,0.001,0.0,0.0,0.0
21/02/2022,03:13:55,0.000,0.0,0.0,0.0
21/02/2022,03:14:55,0.000,0.0,0.0,0.0
21/02/2022,03:15:55,0.000,0.0,0.0,0.0
21/02/2022,03:16:55,0.000,0.0,0.0,0.0
21/02/2022,03:17:55,0.000,0.0,0.0,0.0
21/02/2022,03:18:56,-0.001,0.0,0.0,0.0
21/02/2022,03:19:55,0.000,0.0,0.0,0.0
21/02/2022,03:20:55,0.000,0.0,0.0,0.0
21/02/2022,03:21:55,0.000,0.0,0.0,0.0
21/02/2022,03:22:56,0.000,0.0,0.0,0.0
21/02/2022,03:23:56,0.000,0.0,0.0,0.0
21/02/2022,03:24:56,0.001,0.0,0.0,0.0
21/02/2022,03:26:04,0.000,0.0,0.0,0.0
21/02/2022,03:26:55,0.000,0.0,0.0,0.0
21/02/2022,03:27:55,-0.001,0.0,0.0,0.0
21/02/2022,03:29:04,0.000,0.0,0.0,0.0
21/02/2022,03:30:03,0.001,0.0,0.0,0.0
21/02/2022,03:30:56,0.000,0.0,0.0,0.0
21/02/2022,03:31:56,0.001,0.0,0.0,0.0
21/02/2022,03:32:56,-0.000,0.0,0.0,0.0
21/02/2022,03:33:56,0.000,0.0,0.0,0.0
21/02/2022,03:34:55,-0.001,0.0,0.0,0.0
21/02/2022,03:35:55,0.000,0.0,0.0,0.0
21/02/2022,03:36:55,0.000,0.0,0.0,0.0
21/02/2022,03:37:56,0.001,0.0,0.0,0.0
21/02/2022,03:38:56,-0.001,0.0,0.0,0.0
21/02/2022,03:40:04,0.001,0.0,0.0,0.0
21/02/2022,03:40:56,0.000,0.0,0.0,0.0
21/02/2022,03:41:55,0.001,0.0,0.0,0.0
21/02/2022,03:42:55,0.000,0.0,0.0,0.0
21/02/2022,03:43:56,0.000,0.0,0.0,0.0
21/02/2022,03:44:55,0.001,0.0,0.0,0.0
21/02/2022,03:45:55,0.001,0.0,0.0,0.0
21/02/2022,03:46:56,0.000,0.0,0.0,0.0
21/02/2022,03:48:04,0.000,0.0,0.0,0.0
21/02/2022,03:48:56,-0.001,0.0,0.0,0.0
21/02/2022,03:49:56,0.000,0.0,0.0,0.0
21/02/2022,03:51:04,-0.001,0.0,0.0,0.0
21/02/2022,03:51:56,0.001,0.0,0.0,0.0
21/02/2022,03:52:56,-0.001,0.0,0.0,0.0
21/02/2022,03:53:56,0.000,0.0,0.0,0.0
21/02/2022,03:54:56,0.000,0.0,0.0,0.0
21/02/2022,03:55:56,0.000,0.0,0.0,0.0
21/02/2022,03:56:55,0.000,0.0,0.0,0.0
21/02/2022,03:57:55,0.000,0.0,0.0,0.0
21/02/2022,03:58:55,-0.000,0.0,0.0,0.0
21/02/2022,03:59:56,-0.000,0.0,0.0,0.0
21/02/2022,04:00:56,0.000,0.0,0.0,0.0
21/02/2022,04:01:56,0.001,0.0,0.0,0.0
21/02/2022,04:02:56,-0.001,0.0,0.0,0.0
21/02/2022,04:03:55,0.000,0.0,0.0,0.0
21/02/2022,04:04:55,0.000,0.0,0.0,0.0
21/02/2022,04:05:55,0.000,0.0,0.0,0.0
21/02/2022,04:06:57,0.000,0.0,0.0,0.0
21/02/2022,04:07:56,0.000,0.0,0.0,0.0
21/02/2022,04:08:56,-0.001,0.0,0.0,0.0
21/02/2022,04:09:55,0.000,0.0,0.0,0.0
21/02/2022,04:10:56,0.000,0.0,0.0,0.0
21/02/2022,04:11:56,0.000,0.0,0.0,0.0
21/02/2022,04:12:56,0.000,0.0,0.0,0.0
21/02/2022,04:13:55,0.001,0.0,0.0,0.0
21/02/2022,04:14:55,0.000,0.0,0.0,0.0
21/02/2022,04:15:55,0.000,0.0,0.0,0.0
21/02/2022,04:16:55,0.000,0.0,0.0,0.0
21/02/2022,04:17:56,0.000,0.0,0.0,0.0
21/02/2022,04:18:58,-0.001,0.0,0.0,0.0
21/02/2022,04:19:56,0.001,0.0,0.0,0.0
21/02/2022,04:20:55,0.000,0.0,0.0,0.0
21/02/2022,04:21:55,0.000,0.0,0.0,0.0
21/02/2022,04:22:56,0.000,0.0,0.0,0.0
21/02/2022,04:23:56,0.000,0.0,0.0,0.0
21/02/2022,04:24:56,0.000,0.0,0.0,0.0
21/02/2022,04:25:56,0.000,0.0,0.0,0.0
21/02/2022,04:26:56,0.000,0.0,0.0,0.0
21/02/2022,04:28:04,0.000,0.0,0.0,0.0
21/02/2022,04:28:56,0.000,0.0,0.0,0.0
21/02/2022,04:29:57,0.001,0.0,0.0,0.0
21/02/2022,04:30:55,0.000,0.0,0.0,0.0
21/02/2022,04:31:55,0.000,0.0,0.0,0.0
21/02/2022,04:32:55,0.001,0.0,0.0,0.0
21/02/2022,04:33:55,-0.000,0.0,0.0,0.0
21/02/2022,04:34:55,0.000,0.0,0.0,0.0
21/02/2022,04:35:56,0.000,0.0,0.0,0.0
21/02/2022,04:36:56,-0.001,0.0,0.0,0.0
21/02/2022,04:37:56,0.001,0.0,0.0,0.0
21/02/2022,04:38:56,0.000,0.0,0.0,0.0
21/02/2022,04:39:55,0.000,0.0,0.0,0.0
21/02/2022,04:40:56,-0.001,0.0,0.0,0.0
21/02/2022,04:41:56,0.000,0.0,0.0,0.0
21/02/2022,04:43:04,0.000,0.0,0.0,0.0
21/02/2022,04:43:55,0.000,0.0,0.0,0.0
21/02/2022,04:44:57,0.000,0.0,0.0,0.0
21/02/2022,04:45:56,-0.001,0.0,0.0,0.0
21/02/2022,04:47:04,-0.000,0.0,0.0,0.0
21/02/2022,04:47:55,-0.001,0.0,0.0,0.0
21/02/2022,04:48:55,0.001,0.0,0.0,0.0
21/02/2022,04:49:57,0.000,0.0,0.0,0.0
21/02/2022,04:50:56,-0.000,0.0,0.0,0.0
21/02/2022,04:51:55,-0.001,0.0,0.0,0.0
21/02/2022,04:52:55,0.000,0.0,0.0,0.0
21/02/2022,04:53:55,-0.000,0.0,0.0,0.0
21/02/2022,04:54:55,-0.000,0.0,0.0,0.0
21/02/2022,04:55:56,-0.000,0.0,0.0,0.0
21/02/2022,04:56:56,-0.000,0.0,0.0,0.0
21/02/2022,04:57:56,0.001,0.0,0.0,0.0
21/02/2022,04:58:55,-0.001,0.0,0.0,0.0
21/02/2022,04:59:56,-0.000,0.0,0.0,0.0
21/02/2022,05:01:04,0.000,0.0,0.0,0.0
21/02/2022,05:01:56,0.000,0.0,0.0,0.0
21/02/2022,05:02:55,0.000,0.0,0.0,0.0
21/02/2022,05:03:56,-0.000,0.0,0.0,0.0
21/02/2022,05:05:56,0.000,0.0,0.0,0.0
21/02/2022,05:06:56,0.001,0.0,0.0,0.0
21/02/2022,05:07:56,-0.001,0.0,0.0,0.0
21/02/2022,05:09:04,0.001,0.0,0.0,0.0
21/02/2022,05:09:56,0.000,0.0,0.0,0.0
21/02/2022,05:10:56,-0.000,0.0,0.0,0.0
21/02/2022,05:12:04,-0.000,0.0,0.0,0.0
21/02/2022,05:13:48,-0.000,0.0,0.0,0.0
21/02/2022,05:14:56,-0.000,0.0,0.0,0.0
21/02/2022,05:15:56,-0.000,0.0,0.0,0.0
21/02/2022,05:16:56,0.000,0.0,0.0,0.0
21/02/2022,05:17:56,-0.000,0.0,0.0,0.0
21/02/2022,05:18:56,-0.000,0.0,0.0,0.0
21/02/2022,05:19:56,-0.000,0.0,0.0,0.0
21/02/2022,05:20:56,-0.001,0.0,0.0,0.0
21/02/2022,05:21:55,-0.000,0.0,0.0,0.0
21/02/2022,05:23:04,-0.001,0.0,0.0,0.0
21/02/2022,05:23:47,-0.000,0.0,0.0,0.0
21/02/2022,05:24:57,-0.001,0.0,0.0,0.0
21/02/2022,05:25:56,-0.000,0.0,0.0,0.0
21/02/2022,05:26:56,-0.000,0.0,0.0,0.0
21/02/2022,05:27:56,-0.001,0.0,0.0,0.0
21/02/2022,05:28:56,-0.000,0.0,0.0,0.0
21/02/2022,05:29:55,-0.000,0.0,0.0,0.0
21/02/2022,05:31:04,-0.000,0.0,0.0,0.0
21/02/2022,05:31:55,-0.001,0.0,0.0,0.0
21/02/2022,05:32:55,0.000,0.0,0.0,0.0
21/02/2022,05:33:55,-0.000,0.0,0.0,0.0
21/02/2022,05:34:55,-0.000,0.0,0.0,0.0
21/02/2022,05:35:55,-0.000,0.0,0.0,0.0
21/02/2022,05:36:55,-0.001,0.0,0.0,0.0
21/02/2022,05:38:04,-0.001,0.0,0.0,0.0
21/02/2022,05:38:56,-0.000,0.0,0.0,0.0
21/02/2022,05:39:56,-0.000,0.0,0.0,0.0
21/02/2022,05:40:56,-0.001,0.0,0.0,0.0
21/02/2022,05:41:56,-0.000,0.0,0.0,0.0
21/02/2022,05:42:55,-0.000,0.0,0.0,0.0
21/02/2022,05:43:56,-0.001,0.0,0.0,0.0
21/02/2022,05:44:56,-0.000,0.0,0.0,0.0
21/02/2022,05:46:04,-0.001,0.0,0.0,0.0
21/02/2022,05:46:56,-0.000,0.0,0.0,0.0
21/02/2022,05:47:56,-0.000,0.0,0.0,0.0
21/02/2022,05:48:56,-0.001,0.0,0.0,0.0
21/02/2022,05:49:56,0.000,0.0,0.0,0.0
21/02/2022,05:50:55,0.001,0.0,0.0,0.0
21/02/2022,05:51:55,-0.001,0.0,0.0,0.0
21/02/2022,05:52:56,-0.000,0.0,0.0,0.0
21/02/2022,05:53:55,-0.000,0.0,0.0,0.0
21/02/2022,05:54:56,-0.001,0.0,0.0,0.0
21/02/2022,05:56:04,-0.000,0.0,0.0,0.0
21/02/2022,05:57:04,-0.000,0.0,0.0,0.0
21/02/2022,05:57:56,-0.000,0.0,0.0,0.0
21/02/2022,05:58:56,-0.001,0.0,0.0,0.0
21/02/2022,05:59:56,0.001,0.0,0.0,0.0
21/02/2022,06:00:55,0.000,0.0,0.0,0.0
21/02/2022,06:02:48,-0.001,0.0,0.0,0.0
21/02/2022,06:04:04,-0.000,0.0,0.0,0.0
21/02/2022,06:04:56,-0.001,0.0,0.0,0.0
21/02/2022,06:05:56,0.000,0.0,0.0,0.0
21/02/2022,06:07:04,0.000,0.0,0.0,0.0
21/02/2022,06:07:56,-0.001,0.0,0.0,0.0
21/02/2022,06:08:55,-0.000,0.0,0.0,0.0
21/02/2022,06:09:56,-0.001,0.0,0.0,0.0
21/02/2022,06:10:56,-0.001,0.0,0.0,0.0
21/02/2022,06:11:56,-0.000,0.0,0.0,0.0
21/02/2022,06:12:56,-0.001,0.0,0.0,0.0
21/02/2022,06:13:56,-0.001,0.0,0.0,0.0
21/02/2022,06:15:04,0.000,0.0,0.0,0.0
21/02/2022,06:15:56,-0.001,0.0,0.0,0.0
21/02/2022,06:16:56,-0.001,0.0,0.0,0.0
21/02/2022,06:17:56,-0.000,0.0,0.0,0.0
21/02/2022,06:18:56,0.000,0.0,0.0,0.0
21/02/2022,06:19:56,-0.001,0.0,0.0,0.0
21/02/2022,06:20:56,-0.002,0.0,0.0,0.0
21/02/2022,06:21:55,-0.001,0.0,0.0,0.0
21/02/2022,06:23:56,0.000,0.0,0.0,0.0
21/02/2022,06:24:55,-0.001,0.0,0.0,0.0
21/02/2022,06:26:04,-0.001,0.0,0.0,0.0
21/02/2022,06:26:56,-0.001,0.0,0.0,0.0
21/02/2022,06:27:55,-0.001,0.0,0.0,0.0
21/02/2022,06:28:56,-0.001,0.0,0.0,0.0
21/02/2022,06:29:57,-0.001,0.0,0.0,0.0
21/02/2022,06:30:55,-0.001,0.0,0.0,0.0
21/02/2022,06:31:55,-0.001,0.0,0.0,0.0
21/02/2022,06:33:04,-0.001,0.0,0.0,0.0
21/02/2022,06:33:54,-0.001,0.0,0.0,0.0
21/02/2022,06:34:55,-0.001,0.0,0.0,0.0
21/02/2022,06:35:56,-0.000,0.0,0.0,0.0
21/02/2022,06:37:03,-0.001,0.0,0.0,0.0
21/02/2022,06:37:56,-0.001,0.0,0.0,0.0
21/02/2022,06:38:56,-0.001,0.0,0.0,0.0
21/02/2022,06:39:56,-0.001,0.0,0.0,0.0
21/02/2022,06:40:56,-0.001,0.0,0.0,0.0
21/02/2022,06:41:56,-0.001,0.0,0.0,0.0
21/02/2022,06:42:55,-0.001,0.0,0.0,0.0
21/02/2022,06:43:56,-0.001,0.0,0.0,0.0
21/02/2022,06:44:56,-0.001,0.0,0.0,0.0
21/02/2022,06:45:56,-0.001,0.0,0.0,0.0
21/02/2022,06:46:56,-0.001,0.0,0.0,0.0
21/02/2022,06:48:04,-0.001,0.0,0.0,0.0
21/02/2022,06:48:52,-0.001,0.0,0.0,0.0
21/02/2022,06:49:56,-0.000,0.0,0.0,0.0
21/02/2022,06:50:56,-0.001,0.0,0.0,0.0
21/02/2022,06:51:55,-0.001,0.0,0.0,0.0
21/02/2022,06:52:55,-0.001,0.0,0.0,0.0
21/02/2022,06:53:56,-0.001,0.0,0.0,0.0
21/02/2022,06:54:56,0.000,0.0,0.0,0.0
21/02/2022,06:55:56,0.000,0.0,0.0,0.0
21/02/2022,06:56:56,-0.001,0.0,0.0,0.0
21/02/2022,06:57:49,-0.001,0.0,0.0,0.0
21/02/2022,06:58:56,-0.001,0.0,0.0,0.0
21/02/2022,06:59:56,-0.001,0.0,0.0,0.0
21/02/2022,07:00:56,-0.000,0.0,0.0,0.0
21/02/2022,07:01:56,-0.001,0.0,0.0,0.0
21/02/2022,07:03:04,-0.001,0.0,0.0,0.0
21/02/2022,07:03:56,-0.001,0.0,0.0,0.0
21/02/2022,07:04:55,-0.001,0.0,0.0,0.0
21/02/2022,07:05:57,0.000,0.0,0.0,0.0
21/02/2022,07:06:56,-0.001,0.0,0.0,0.0
21/02/2022,07:07:56,0.000,0.0,0.0,0.0
21/02/2022,07:08:56,-0.000,0.0,0.0,0.0
21/02/2022,07:09:56,0.001,0.0,0.0,0.0
21/02/2022,07:10:56,0.001,0.0,0.0,0.0
21/02/2022,07:11:57,0.001,0.0,0.0,0.0
21/02/2022,07:12:55,-0.000,0.0,0.0,0.0
21/02/2022,07:13:56,-0.000,0.0,0.0,0.0
21/02/2022,07:14:55,0.000,0.0,0.0,0.0
21/02/2022,07:15:56,0.000,0.0,0.0,0.0
21/02/2022,07:17:04,0.000,0.0,0.0,0.0
21/02/2022,07:18:02,0.000,0.0,0.0,0.0
21/02/2022,07:18:56,-0.001,0.0,0.0,0.0
21/02/2022,07:19:56,0.000,0.0,0.0,0.0
21/02/2022,07:20:56,0.001,0.0,0.0,0.0
21/02/2022,07:21:56,0.001,0.0,0.0,0.0
21/02/2022,07:22:56,-0.000,0.0,0.0,0.0
21/02/2022,07:23:56,0.001,0.0,0.0,0.0
21/02/2022,07:25:04,0.001,0.0,0.0,0.0
21/02/2022,07:25:55,0.001,0.0,0.0,0.0
21/02/2022,07:26:56,0.002,0.0,0.0,0.0
21/02/2022,07:27:56,0.002,0.0,0.0,0.0
21/02/2022,07:28:55,0.001,0.0,0.0,0.0
21/02/2022,07:29:56,0.001,0.0,0.0,0.0
21/02/2022,07:30:56,0.001,0.0,0.0,0.0
21/02/2022,07:31:56,0.001,0.0,0.0,0.0
21/02/2022,07:33:04,0.001,0.0,0.0,0.0
21/02/2022,07:33:56,0.002,0.0,0.0,0.0
21/02/2022,07:34:56,0.001,0.0,0.0,0.0
21/02/2022,07:35:55,0.003,0.0,0.0,0.0
21/02/2022,07:36:55,0.003,0.0,0.0,0.0
21/02/2022,07:37:55,0.003,0.0,0.0,0.0
21/02/2022,07:38:56,0.003,0.0,0.0,0.0
21/02/2022,07:39:56,0.003,0.0,0.0,0.0
21/02/2022,07:41:13,0.004,0.0,0.0,0.0
21/02/2022,07:42:56,0.007,0.0,0.0,0.0
21/02/2022,07:43:56,0.007,0.0,0.0,0.0
21/02/2022,07:44:56,0.008,0.0,0.0,0.0
21/02/2022,07:45:55,0.007,0.0,0.0,0.0
21/02/2022,07:46:56,0.007,0.0,0.001,0.001
21/02/2022,07:47:56,0.007,0.0,0.001,0.0
21/02/2022,07:48:56,0.006,0.0,0.001,0.0
21/02/2022,07:49:56,0.005,0.0,0.001,0.0
21/02/2022,07:50:56,0.004,0.0,0.001,0.0
21/02/2022,07:51:56,0.005,0.0,0.001,0.0
21/02/2022,07:52:58,0.007,0.0,0.001,0.0
21/02/2022,07:54:04,0.009,0.0,0.001,0.0
21/02/2022,07:54:56,0.009,0.0,0.001,0.0
21/02/2022,07:55:56,0.008,0.0,0.001,0.0
21/02/2022,07:56:55,0.008,0.0,0.001,0.0
21/02/2022,07:57:55,0.008,0.0,0.001,0.0
21/02/2022,07:58:56,0.007,0.0,0.002,0.001
21/02/2022,07:59:55,0.008,0.0,0.002,0.0
21/02/2022,08:00:56,0.010,0.0,0.002,0.0
21/02/2022,08:02:04,0.010,0.0,0.002,0.0
21/02/2022,08:02:56,0.011,0.0,0.002,0.0
21/02/2022,08:03:56,0.012,0.0,0.002,0.0
21/02/2022,08:05:04,0.011,0.0,0.003,0.001
21/02/2022,08:05:56,0.009,0.0,0.003,0.0
21/02/2022,08:06:56,0.008,0.0,0.003,0.0
21/02/2022,08:07:56,0.008,0.0,0.003,0.0
21/02/2022,08:08:55,0.009,0.0,0.003,0.0
21/02/2022,08:09:49,0.010,0.0,0.003,0.0
21/02/2022,08:10:56,0.012,0.0,0.004,0.001
21/02/2022,08:11:58,0.011,0.0,0.004,0.0
21/02/2022,08:12:55,0.013,0.0,0.004,0.0
21/02/2022,08:13:56,0.013,0.0,0.004,0.0
21/02/2022,08:14:56,0.013,0.0,0.004,0.0
21/02/2022,08:15:56,0.010,0.0,0.005,0.001
21/02/2022,08:16:56,0.009,0.0,0.005,0.0
21/02/2022,08:17:55,0.009,0.0,0.005,0.0
21/02/2022,08:18:55,0.013,0.0,0.005,0.0
21/02/2022,08:20:04,0.012,0.0,0.005,0.0
21/02/2022,08:20:55,0.011,0.0,0.005,0.0
21/02/2022,08:21:56,0.010,0.0,0.006,0.001
21/02/2022,08:22:56,0.011,0.0,0.006,0.0
21/02/2022,08:23:56,0.010,0.0,0.006,0.0
21/02/2022,08:24:56,0.011,0.0,0.006,0.0
21/02/2022,08:25:56,0.013,0.0,0.006,0.0
21/02/2022,08:27:04,0.011,0.0,0.007,0.001
21/02/2022,08:27:54,0.012,0.0,0.007,0.0
21/02/2022,08:28:56,0.014,0.0,0.007,0.0
21/02/2022,08:29:58,0.013,0.0,0.007,0.0
21/02/2022,08:31:04,0.016,0.0,0.007,0.0
21/02/2022,08:31:55,0.016,0.0,0.008,0.001
21/02/2022,08:32:56,0.017,0.0,0.008,0.0
21/02/2022,08:33:56,0.017,0.0,0.008,0.0
21/02/2022,08:34:56,0.017,0.0,0.009,0.001
21/02/2022,08:35:55,0.018,0.0,0.009,0.0
21/02/2022,08:36:56,0.021,0.0,0.009,0.0
21/02/2022,08:37:56,0.021,0.0,0.01,0.001
21/02/2022,08:38:56,0.020,0.0,0.01,0.0
21/02/2022,08:39:56,0.020,0.0,0.01,0.0
21/02/2022,08:40:56,0.020,0.0,0.011,0.001
21/02/2022,08:41:56,0.017,0.0,0.011,0.0
21/02/2022,08:42:56,0.019,0.0,0.011,0.0
21/02/2022,08:43:56,0.022,0.0,0.011,0.0
21/02/2022,08:44:56,0.024,0.0,0.012,0.001
21/02/2022,08:45:56,0.028,0.0,0.012,0.0
21/02/2022,08:46:56,0.032,0.0,0.013,0.001
21/02/2022,08:47:56,0.038,0.0,0.013,0.0
21/02/2022,08:48:56,0.042,0.0,0.014,0.001
21/02/2022,08:49:56,0.047,0.0,0.015,0.001
21/02/2022,08:50:56,0.046,0.0,0.016,0.001
21/02/2022,08:51:56,0.044,0.0,0.016,0.0
21/02/2022,08:52:56,0.037,0.0,0.017,0.001
21/02/2022,08:53:56,0.038,0.0,0.018,0.001
21/02/2022,08:54:56,0.040,0.0,0.018,0.0
21/02/2022,08:55:56,0.038,0.0,0.019,0.001
21/02/2022,08:56:56,0.039,0.0,0.02,0.001
21/02/2022,08:57:56,0.042,0.0,0.02,0.0
21/02/2022,08:58:56,0.050,0.0,0.021,0.001
21/02/2022,09:00:04,0.053,0.0,0.022,0.001
21/02/2022,09:00:56,0.058,0.0,0.023,0.001
21/02/2022,09:01:56,0.051,0.0,0.024,0.001
21/02/2022,09:03:04,0.045,0.0,0.025,0.001
21/02/2022,09:03:54,0.048,0.0,0.025,0.0
21/02/2022,09:04:56,0.058,0.0,0.026,0.001
21/02/2022,09:05:56,0.068,0.0,0.027,0.001
21/02/2022,09:06:56,0.070,0.0,0.028,0.001
21/02/2022,09:07:56,0.064,0.0,0.029,0.001
21/02/2022,09:08:56,0.073,0.0,0.031,0.002
21/02/2022,09:09:56,0.082,0.0,0.032,0.001
21/02/2022,09:11:04,0.088,0.0,0.033,0.001
21/02/2022,09:11:55,0.093,0.0,0.035,0.002
21/02/2022,09:12:56,0.093,0.0,0.036,0.001
21/02/2022,09:14:05,0.091,0.0,0.038,0.002
21/02/2022,09:14:54,0.085,0.0,0.039,0.001
21/02/2022,09:15:57,0.080,0.0,0.041,0.002
21/02/2022,09:16:56,0.091,0.0,0.042,0.001
21/02/2022,09:17:56,0.096,0.0,0.044,0.002
21/02/2022,09:18:56,0.107,0.0,0.045,0.001
21/02/2022,09:19:56,0.113,0.0,0.047,0.002
21/02/2022,09:20:56,0.118,0.0,0.049,0.002
21/02/2022,09:21:56,0.115,0.0,0.051,0.002
21/02/2022,09:22:56,0.113,0.0,0.053,0.002
21/02/2022,09:23:56,0.110,0.0,0.055,0.002
21/02/2022,09:24:56,0.121,0.0,0.057,0.002
21/02/2022,09:25:56,0.125,0.0,0.059,0.002
21/02/2022,09:26:56,0.128,0.0,0.061,0.002
21/02/2022,09:27:56,0.124,0.0,0.063,0.002
21/02/2022,09:28:55,0.120,0.0,0.065,0.002
21/02/2022,09:29:56,0.120,0.0,0.067,0.002
21/02/2022,09:30:56,0.134,0.0,0.069,0.002
21/02/2022,09:32:04,0.140,0.0,0.072,0.003
21/02/2022,09:32:56,0.143,0.0,0.074,0.002
21/02/2022,09:33:57,0.152,0.0,0.076,0.002
21/02/2022,09:35:04,0.153,0.0,0.079,0.003
21/02/2022,09:35:56,0.156,0.0,0.081,0.002
21/02/2022,09:36:56,0.158,0.0,0.084,0.003
21/02/2022,09:37:56,0.161,0.0,0.087,0.003
21/02/2022,09:38:56,0.174,0.0,0.089,0.002
21/02/2022,09:39:56,0.167,0.0,0.092,0.003
21/02/2022,09:40:56,0.171,0.0,0.095,0.003
21/02/2022,09:41:56,0.170,0.0,0.098,0.003
21/02/2022,09:43:04,0.173,0.0,0.101,0.003
21/02/2022,09:43:56,0.191,0.0,0.104,0.003
21/02/2022,09:44:56,0.186,0.0,0.107,0.003
21/02/2022,09:45:56,0.200,0.0,0.11,0.003
21/02/2022,09:46:56,0.202,0.0,0.114,0.004
21/02/2022,09:47:57,0.206,0.0,0.117,0.003
21/02/2022,09:48:56,0.208,0.0,0.12,0.003
21/02/2022,09:49:56,0.210,0.0,0.124,0.004
21/02/2022,09:50:56,0.213,0.0,0.127,0.003
21/02/2022,09:52:57,0.217,0.0,0.135,0.008
21/02/2022,09:53:56,0.219,1.0,0.138,0.003
21/02/2022,09:54:56,0.223,1.0,0.142,0.004
21/02/2022,09:56:05,0.223,1.0,0.146,0.004
21/02/2022,09:56:55,0.203,0.0,0.149,0.003
21/02/2022,09:57:56,0.208,0.0,0.153,0.004
21/02/2022,09:58:56,0.237,1.0,0.157,0.004
21/02/2022,09:59:56,0.239,1.0,0.16,0.003
21/02/2022,10:00:56,0.243,1.0,0.164,0.004
21/02/2022,10:01:56,0.217,0.0,0.168,0.004
21/02/2022,10:02:56,0.228,1.0,0.172,0.004
21/02/2022,10:04:04,0.250,1.0,0.177,0.005
21/02/2022,10:04:56,0.256,1.0,0.181,0.004
21/02/2022,10:05:56,0.259,1.0,0.185,0.004
21/02/2022,10:06:56,0.262,1.0,0.189,0.004
21/02/2022,10:07:56,0.260,1.0,0.193,0.004
21/02/2022,10:08:56,0.244,1.0,0.198,0.005
21/02/2022,10:09:57,0.268,1.0,0.202,0.004
21/02/2022,10:10:56,0.273,1.0,0.206,0.004
21/02/2022,10:11:56,0.275,1.0,0.211,0.005
21/02/2022,10:12:56,0.259,1.0,0.215,0.004
21/02/2022,10:14:04,0.247,1.0,0.22,0.005
21/02/2022,10:14:56,0.279,1.0,0.224,0.004
21/02/2022,10:15:56,0.254,1.0,0.228,0.004
21/02/2022,10:16:56,0.288,1.0,0.233,0.005
21/02/2022,10:17:56,0.252,1.0,0.237,0.004
21/02/2022,10:18:56,0.253,1.0,0.242,0.005
21/02/2022,10:19:56,0.302,1.0,0.246,0.004
21/02/2022,10:20:56,0.271,1.0,0.251,0.005
21/02/2022,10:21:56,0.252,1.0,0.255,0.004